Lid_Strength_Index
1 1 1 1 1 1 1 1 1 1 1 1 1 1 1 1 1 4 6 3 2 -2 -1 6 6 6 7 8 10 12 14 16 14 12 10 9 9 6 5 6 5 5 5 4 2
2 1 1 1 1 1 1 1 1 1 1 1 1 1 1 1 4 6 1 -3 -4 -2 6 7 7 7 9 10 11 12 15 14 11 10 10 11 7 7 7 7 7 6 4 3 3
2 2 2 1 1 1 1 1 1 1 1 1 1 1 1 1 7 5 -3 -4 -4 0 5 6 7 8 10 11 12 13 13 12 10 8 9 10 9 6 7 9 7 8 6 4 4
2 2 1 1 1 1 1 1 1 1 1 1 1 1 1 4 11 5 -4 -4 -3 4 6 7 8 10 11 12 11 13 11 10 10 9 9 9 6 8 7 7 5 5 4 4 4
2 2 2 1 1 1 1 1 1 1 1 1 1 0 4 7 6 3 -4 -3 2 5 7 8 9 11 11 12 11 11 10 9 8 7 7 6 8 8 8 5 4 4 4 4 4
2 2 2 2 2 2 2 2 2 2 1 1 1 1 6 10 4 3 3 3 4 6 8 7 8 9 11 11 12 10 10 9 9 7 7 8 8 7 7 5 5 5 5 4 4
2 2 2 2 2 2 2 2 2 2 1 1 0 2 6 8 4 4 4 6 5 5 6 6 7 8 10 10 10 10 11 10 8 9 8 7 10 10 6 5 6 6 5 4 4
2 2 2 2 2 2 2 2 2 2 1 1 0 4 9 5 3 3 5 5 5 5 5 5 6 9 11 9 9 11 12 14 9 8 8 8 14 9 6 6 7 6 5 5 4
2 3 2 2 2 2 2 2 2 1 1 0 5 7 7 2 4 3 4 5 5 5 6 5 8 10 10 12 12 12 14 13 12 8 9 10 12 8 6 6 7 6 6 5 5
3 3 3 2 3 3 4 3 2 2 2 1 3 8 6 5 4 4 5 5 7 7 7 8 10 11 12 12 15 14 13 12 14 10 10 11 11 9 7 7 7 7 6 6 5
3 3 3 4 3 3 5 5 6 6 6 7 6 6 5 4 4 6 5 6 7 8 11 10 11 12 12 11 11 11 11 13 12 9 11 11 11 9 8 7 7 7 7 6 5
3 3 3 4 3 3 6 6 5 5 7 5 4 5 4 4 5 5 5 8 8 10 10 11 13 10 9 9 10 11 12 12 11 9 10 11 12 9 8 8 7 7 7 6 5
4 4 3 3 3 6 6 5 3 5 9 6 5 5 4 4 6 6 6 8 9 9 10 12 10 8 8 10 10 12 12 12 13 11 10 11 13 11 9 7 7 6 6 5 5
4 4 4 4 6 7 7 4 5 5 10 8 6 5 5 6 7 5 5 7 8 10 10 10 8 8 10 10 10 12 10 10 12 12 17 11 18 13 11 10 8 7 7 6 6
4 4 4 5 10 7 5 6 7 5 16 7 7 5 6 7 7 6 5 6 9 9 9 10 9 9 10 10 9 11 9 11 11 14 13 14 16 14 11 12 10 8 7 7 6
4 4 4 5 7 6 5 7 6 11 16 8 7 8 9 8 7 7 6 6 7 8 8 9 7 8 8 8 8 9 11 12 13 14 16 14 16 16 14 11 10 8 7 8 8
4 4 5 4 7 5 6 7 12 14 8 9 10 8 10 9 8 8 7 8 10 12 12 9 9 7 7 10 9 10 13 16 16 17 17 14 16 15 11 9 8 8 8 8 7
5 5 5 4 6 4 5 9 14 10 9 7 8 8 9 8 8 7 9 10 8 10 12 13 13 9 8 10 12 12 13 16 19 18 17 14 17 15 9 7 7 7 8 8 7
6 5 5 4 3 4 7 12 12 9 8 8 8 10 10 8 8 8 10 10 8 9 12 13 12 8 8 8 10 12 13 13 15 15 16 17 14 11 9 9 8 8 8 8 8
6 5 5 4 4 5 9 11 9 7 8 8 11 9 11 10 10 10 10 8 8 7 9 10 13 9 8 8 8 9 9 14 14 19 20 18 16 16 12 11 9 8 8 8 7
5 7 4 4 4 7 11 10 8 7 8 9 10 10 9 10 10 11 10 8 7 8 9 10 12 11 10 10 11 11 12 12 13 14 18 20 18 11 11 10 10 8 8 7 7
7 9 4 5 8 10 11 8 7 7 7 7 7 9 9 9 10 10 10 9 6 7 10 10 13 14 12 9 8 9 12 12 15 17 16 17 17 9 10 9 8 7 7 5 6
8 7 3 4 10 10 8 7 8 7 8 8 8 7 8 10 12 9 9 7 6 7 9 10 13 16 14 11 10 11 11 11 12 13 17 18 17 9 8 9 8 8 7 8 7
7 9 8 8 8 10 10 9 8 5 7 7 8 7 9 10 9 11 9 7 6 7 6 7 12 13 16 13 11 14 12 11 13 16 16 16 15 12 10 10 9 7 8 7 8
8 9 8 11 10 10 10 9 9 9 7 6 8 8 9 12 10 11 9 8 7 6 7 10 13 13 11 11 11 12 12 12 14 13 16 14 14 13 11 10 8 8 8 7 7
8 9 8 9 9 10 11 11 8 8 8 9 9 8 8 11 10 12 10 10 10 8 10 9 13 12 13 11 11 13 11 11 11 11 12 12 13 9 9 8 8 9 8 7 7
7 6 7 9 8 9 9 8 7 7 7 7 7 8 9 8 7 8 9 9 9 9 10 11 12 14 17 12 12 16 12 11 11 10 11 14 12 10 9 9 10 9 8 8 7